Location: Gniazdowice
(50.2124°N, 20.2673°E)
Time: 22:14:06
(UTC+00:00)

Meteor 2-5 Rocket - Pass Details

Date: 23 May 2024
Orbit: 832 x 911 km, 81.2° (Epoch: 21 June)

Event Time Altitude Azimuth Distance (km) Brightness Sun altitude
Exits shadow 01:00:33 - 175° (S) 2,739 5.9 -12.3°
Reaches altitude 10° 01:00:59 10° 175° (S) 2,577 5.8 -12.2°
Maximum altitude 01:06:46 61° 96° (E) 1,030 4.3 -11.7°
Drops below altitude 10° 01:12:38 10° 18° (NNE) 2,612 7.5 -11.1°
Sets 01:15:08 0° 15° (NNE) 3,556 8.4 -10.9°
